FW2847 Weather Reports


Display with metric or nautical units.
time (UTC)temp
F
wind
direction
speed
MPH
gust
MPH
rain 1hr
in
rain 24hr
in
rain mn
in
humidity
%
barometer
mb
20260504004624 65 300 6.0 12.0 0.00 0.00 0.00 26 1020.6
20260504004125 64 320 6.0 12.0 0.00 0.00 0.00 26 1020.6
20260504003857 65 338 6.0 10.0 0.00 0.00 0.00 26 1020.6
20260504003124 65 296 6.0 10.0 0.00 0.00 0.00 26 1020.6
20260504002623 64 277 5.0 11.0 0.00 0.00 0.00 26 1020.6
20260504002355 63 299 4.0 11.0 0.00 0.00 0.00 27 1020.6
20260504001625 64 38 5.0 10.0 0.00 0.00 0.00 27 1020.6
20260504001354 63 352 5.0 11.0 0.00 0.00 0.00 26 1020.6
20260504000625 63 44 4.0 11.0 0.00 0.00 0.00 29 1020.6
20260504000123 64 48 4.0 9.0 0.00 0.00 0.00 28 1020.6
20260503235624 64 47 3.0 7.0 0.00 0.00 0.00 27 1020.6
20260503235123 64 6 4.0 8.0 0.00 0.00 0.00 28 1020.6
20260503234624 63 89 4.0 9.0 0.00 0.00 0.00 30 1020.6
20260503234124 64 93 5.0 9.0 0.00 0.00 0.00 29 1020.6
20260503233624 64 349 4.0 9.0 0.00 0.00 0.00 28 1020.6
20260503233126 64 1 4.0 8.0 0.00 0.00 0.00 28 1020.6
20260503232624 64 30 6.0 16.0 0.00 0.00 0.00 29 1020.6
20260503232124 64 10 8.0 16.0 0.00 0.00 0.00 29 1020.6
20260503231855 64 86 9.0 14.0 0.00 0.00 0.00 28 1020.6
20260503231358 65 63 8.0 14.0 0.00 0.00 0.00 27 1020.6
20260503230623 65 49 7.0 14.0 0.00 0.00 0.00 26 1020.6
20260503230125 66 48 7.0 13.0 0.00 0.00 0.00 25 1020.6
20260503225855 66 37 6.0 11.0 0.00 0.00 0.00 24 1020.6
20260503225355 66 52 5.0 9.0 0.00 0.00 0.00 23 1020.6
20260503224624 66 51 3.0 6.0 0.00 0.00 0.00 23 1020.6
20260503224126 66 49 3.0 8.0 0.00 0.00 0.00 23 1020.6
20260503223623 67 323 3.0 8.0 0.00 0.00 0.00 23 1020.6
20260503223356 67 4 4.0 9.0 0.00 0.00 0.00 22 1020.6
20260503222624 68 34 5.0 10.0 0.00 0.00 0.00 22 1020.6
20260503222357 69 55 4.0 10.0 0.00 0.00 0.00 22 1020.6
20260503221623 68 9 2.0 8.0 0.00 0.00 0.00 23 1020.6
20260503221124 68 119 1.0 7.0 0.00 0.00 0.00 23 1020.6
20260503220623 67 153 4.0 12.0 0.00 0.00 0.00 23 1020.6
20260503220122 67 281 4.0 12.0 0.00 0.00 0.00 23 1020.6
20260503215620 67 259 3.0 10.0 0.00 0.00 0.00 22 1020.6
20260503215119 67 296 4.0 12.0 0.00 0.00 0.00 22 1020.6
20260503214618 67 289 3.0 12.0 0.00 0.00 0.00 21 1020.6
20260503214120 68 251 1.0 12.0 0.00 0.00 0.00 21 1020.6
20260503213615 67 109 2.0 12.0 0.00 0.00 0.00 22 1020.6
20260503213118 68 71 4.0 23.0 0.00 0.00 0.00 21 1020.6
20260503212616 68 260 5.0 23.0 0.00 0.00 0.00 21 1020.6
20260503212115 69 295 5.0 11.0 0.00 0.00 0.00 19 1020.6
20260503211615 69 286 6.0 11.0 0.00 0.00 0.00 19 1020.6
20260503211115 69 297 4.0 10.0 0.00 0.00 0.00 19 1020.6
20260503210613 68 281 5.0 12.0 0.00 0.00 0.00 19 1020.6
20260503210113 68 321 5.0 12.0 0.00 0.00 0.00 19 1020.6
20260503205614 68 297 7.0 18.0 0.00 0.00 0.00 18 1020.6
20260503205116 68 298 11.0 21.0 0.00 0.00 0.00 17 1020.6
20260503204613 68 285 9.0 21.0 0.00 0.00 0.00 21 1020.6
20260503204114 69 288 5.0 18.0 0.00 0.00 0.00 21 1020.6
20260503203613 70 304 2.0 6.0 0.00 0.00 0.00 17 1020.6
20260503203115 71 288 1.0 5.0 0.00 0.00 0.00 16 1020.6
20260503202614 71 67 1.0 5.0 0.00 0.00 0.00 17 1020.6
20260503202113 72 105 1.0 4.0 0.00 0.00 0.00 16 1020.6
20260503201614 72 162 2.0 6.0 0.00 0.00 0.00 17 1020.6
20260503201114 71 49 3.0 10.0 0.00 0.00 0.00 18 1020.6
20260503200613 70 115 2.0 10.0 0.00 0.00 0.00 18 1020.6
20260503200114 70 135 2.0 7.0 0.00 0.00 0.00 17 1020.6
20260503195616 70 122 6.0 12.0 0.00 0.00 0.00 18 1020.6
20260503195611 70 228 4.0 12.0 0.00 0.00 0.00 17 1020.6
20260503194842 69 290 6.0 15.0 0.00 0.00 0.00 17 1020.6
20260503194114 69 288 7.0 15.0 0.00 0.00 0.00 17 1020.6
20260503193613 69 311 7.0 15.0 0.00 0.00 0.00 17 1020.6
20260503193111 69 295 5.0 15.0 0.00 0.00 0.00 17 1020.6
20260503192610 69 290 5.0 10.0 0.00 0.00 0.00 15 1020.6
20260503192109 69 269 6.0 14.0 0.00 0.00 0.00 16 1020.6
20260503191608 69 299 5.0 14.0 0.00 0.00 0.00 16 1020.6
20260503191108 69 307 4.0 16.0 0.00 0.00 0.00 17 1020.6
20260503190608 69 358 4.0 16.0 0.00 0.00 0.00 16 1020.6
20260503190109 70 44 4.0 9.0 0.00 0.00 0.00 15 1020.6
20260503185608 70 293 5.0 11.0 0.00 0.00 0.00 15 1020.6
20260503185338 71 275 6.0 11.0 0.00 0.00 0.00 16 1020.6
20260503184609 71 290 7.0 17.0 0.00 0.00 0.00 16 1020.6
20260503184108 71 291 9.0 17.0 0.00 0.00 0.00 15 1020.6
20260503183605 71 309 7.0 15.0 0.00 0.00 0.00 15 1020.6
20260503183107 71 343 7.0 13.0 0.00 0.00 0.00 16 1020.6
20260503182607 72 316 7.0 13.0 0.00 0.00 0.00 14 1020.6
20260503182105 71 295 8.0 13.0 0.00 0.00 0.00 14 1020.6
20260503181606 70 284 8.0 14.0 0.00 0.00 0.00 16 1020.6
20260503181105 71 302 6.0 14.0 0.00 0.00 0.00 17 1020.6
20260503180608 70 317 5.0 11.0 0.00 0.00 0.00 17 1020.6
20260503180105 69 297 5.0 11.0 0.00 0.00 0.00 18 1020.6
20260503175606 69 298 6.0 11.0 0.00 0.00 0.00 18 1020.6
20260503175106 69 287 6.0 11.0 0.00 0.00 0.00 18 1020.6
20260503174604 70 304 5.0 11.0 0.00 0.00 0.00 19 1020.6
20260503174104 69 265 6.0 11.0 0.00 0.00 0.00 20 1020.6
20260503173833 69 277 7.0 14.0 0.00 0.00 0.00 20 1020.6
20260503173333 68 301 6.0 14.0 0.00 0.00 0.00 19 1020.6
20260503172603 67 290 7.0 16.0 0.00 0.00 0.00 19 1020.6
20260503172102 67 299 8.0 16.0 0.00 0.00 0.00 19 1020.6
20260503171603 67 288 8.0 14.0 0.00 0.00 0.00 20 1020.6
20260503171104 66 306 9.0 18.0 0.00 0.00 0.00 21 1020.6
20260503170603 66 295 9.0 18.0 0.00 0.00 0.00 20 1020.6
20260503170334 67 312 9.0 17.0 0.00 0.00 0.00 20 1020.6
20260503150551 60 254 0.0 1.0 0.00 0.00 0.00 28 1020.6
20260503131042 58 297 6.0 13.0 0.00 0.00 0.00 27 1020.6
20260503130540 58 290 6.0 11.0 0.00 0.00 0.00 27 1020.6
20260503110812 52 292 0.0 1.0 0.00 0.00 0.00 33 1020.6
20260503081028 56 264 3.0 7.0 0.00 0.00 0.00 29 1020.6
20260503080526 57 292 3.0 7.0 0.00 0.00 0.00 28 1020.6
20260503072756 58 293 5.0 10.0 0.00 0.00 0.00 26 1020.6
20260503072028 58 297 6.0 11.0 0.00 0.00 0.00 26 1020.6
20260503071528 58 302 6.0 13.0 0.00 0.00 0.00 26 1020.6
20260503071258 57 297 5.0 13.0 0.00 0.00 0.00 26 1020.6
20260503070526 56 300 3.0 8.0 0.00 0.00 0.00 24 1020.6
20260503070259 57 287 3.0 6.0 0.00 0.00 0.00 22 1020.6
20260503055022 56 285 4.0 8.0 0.00 0.00 0.00 18 1020.6
20260503054520 56 302 3.0 6.0 0.00 0.00 0.00 18 1020.6
20260503054019 56 285 3.0 6.0 0.00 0.00 0.00 18 1020.6
20260503053521 56 281 3.0 5.0 0.00 0.00 0.00 18 1020.6
20260503053021 56 285 3.0 5.0 0.00 0.00 0.00 18 1020.6
20260503052520 56 283 2.0 5.0 0.00 0.00 0.00 18 1020.6
20260503052020 56 277 3.0 5.0 0.00 0.00 0.00 18 1020.6
20260503051520 56 283 2.0 5.0 0.00 0.00 0.00 18 1020.6
20260503051021 56 281 2.0 5.0 0.00 0.00 0.00 18 1020.6
20260503050521 56 290 3.0 5.0 0.00 0.00 0.00 18 1020.6
20260503050018 56 300 2.0 5.0 0.00 0.00 0.00 19 1020.6
20260503045517 55 275 2.0 5.0 0.00 0.00 0.00 19 1020.6
20260503045021 56 292 3.0 5.0 0.00 0.00 0.00 18 1020.6
20260503044517 55 283 2.0 5.0 0.00 0.00 0.00 19 1020.6
20260503044016 54 300 3.0 5.0 0.00 0.00 0.00 20 1020.6
20260503043516 55 288 3.0 6.0 0.00 0.00 0.00 19 1020.6
20260503043016 55 302 3.0 6.0 0.00 0.00 0.00 19 1020.6
20260503042517 55 288 3.0 5.0 0.00 0.00 0.00 19 1020.6
20260503042022 54 281 2.0 4.0 0.00 0.00 0.00 19 1020.6
20260503042018 55 290 2.0 5.0 0.00 0.00 0.00 19 1020.6
20260503041017 54 294 2.0 4.0 0.00 0.00 0.00 20 1020.6
20260503040516 54 299 2.0 4.0 0.00 0.00 0.00 21 1020.6
20260503040013 54 281 2.0 5.0 0.00 0.00 0.00 20 1020.6
20260503035514 54 297 2.0 5.0 0.00 0.00 0.00 20 1020.6
20260503035015 55 280 2.0 5.0 0.00 0.00 0.00 19 1020.6
20260503034515 55 302 3.0 6.0 0.00 0.00 0.00 19 1020.6
20260503034245 55 279 2.0 6.0 0.00 0.00 0.00 19 1020.6
20260503033515 55 287 2.0 4.0 0.00 0.00 0.00 19 1020.6
20260503033015 55 288 2.0 5.0 0.00 0.00 0.00 19 1020.6
20260503032515 55 296 2.0 5.0 0.00 0.00 0.00 19 1020.6
20260503032014 55 300 2.0 4.0 0.00 0.00 0.00 19 1020.6
20260503031514 55 278 1.0 4.0 0.00 0.00 0.00 19 1020.6
20260503031247 56 273 1.0 3.0 0.00 0.00 0.00 18 1020.6
20260503030513 56 293 1.0 3.0 0.00 0.00 0.00 18 1020.6
20260503030014 56 289 1.0 2.0 0.00 0.00 0.00 18 1020.6
20260503025513 56 288 1.0 3.0 0.00 0.00 0.00 18 1020.6
20260503025248 56 283 1.0 3.0 0.00 0.00 0.00 18 1020.6
20260503024513 57 288 1.0 3.0 0.00 0.00 0.00 17 1020.6
20260503024015 57 290 0.0 2.0 0.00 0.00 0.00 17 1020.6
20260503023515 57 282 1.0 2.0 0.00 0.00 0.00 17 1020.6
20260503023014 58 283 1.0 2.0 0.00 0.00 0.00 17 1020.6
20260503022515 58 276 0.0 2.0 0.00 0.00 0.00 16 1020.6
20260503022014 59 284 0.0 0.0 0.00 0.00 0.00 16 1020.6
20260503021744 59 281 0.0 0.0 0.00 0.00 0.00 15 1020.6
20260503021246 59 284 0.0 1.0 0.00 0.00 0.00 15 1020.6
20260503020514 59 274 0.0 1.0 0.00 0.00 0.00 15 1020.6
20260503020016 60 279 0.0 0.0 0.00 0.00 0.00 15 1020.6
20260503015514 60 91 0.0 0.0 0.00 0.00 0.00 13 1020.6
20260503015014 61 91 0.0 0.0 0.00 0.00 0.00 13 1020.6
20260503014513 62 91 0.0 0.0 0.00 0.00 0.00 13 1020.6
20260503014247 62 91 0.0 0.0 0.00 0.00 0.00 12 1020.6
20260503013514 63 91 0.0 0.0 0.00 0.00 0.00 13 1020.6
20260503013014 64 91 0.0 1.0 0.00 0.00 0.00 13 1020.6
20260503012515 64 91 0.0 1.0 0.00 0.00 0.00 13 1020.6
20260503012247 64 91 0.0 2.0 0.00 0.00 0.00 13 1020.6
20260503011514 64 97 0.0 3.0 0.00 0.00 0.00 13 1020.6
20260503011246 65 94 1.0 4.0 0.00 0.00 0.00 13 1020.6
20260503010513 64 91 1.0 4.0 0.00 0.00 0.00 13 1020.6
20260503010012 64 87 2.0 5.0 0.00 0.00 0.00 13 1020.6
20260503005514 65 86 2.0 5.0 0.00 0.00 0.00 13 1020.6
20260503005009 65 80 2.0 7.0 0.00 0.00 0.00 13 1020.6